User: anonymous   Login
Location: Chandolas
(44.4033°N, 4.2533°E)
Time: 14:06:08
(UTC+00:00)
Language:

Cosmos 2369 - Orbit

View from above orbital plane
View from above orbital plane
View from above satellite
View from above satellite

Ground track
Ground track

The orbit data is extracted from the following two-line orbital elements,

1 26069U 00006A   20020.88602321  .00000203  00000-0  13341-3 0  9993
2 26069  70.9926 173.7145 0012748 237.7582 122.2305 14.13382043 30021
Epoch (UTC): 20 January 2020 21:15:52
Eccentricity: 0.0012748
inclination: 70.9926°
perigee height: 838 km
apogee height: 857 km
right ascension of ascending node: 173.7145°
argument of perigee: 237.7582°
revolutions per day: 14.13382043
mean anomaly at epoch: 122.2305°
orbit number at epoch: 3002

The dashed part of the orbit path shows where the satellite is in the earth's shadow,  

DLR